Regional Weather Roundup
Issued by NWS

Home | Current Version | Previous Version | Text Only | Print | Product List | Glossary On
Versions: 1 2 3 4 5 6 7 8 9 10 11 12 13 14 15 16 17 18 19 20 21 22 23 24 25 26 27 28 29 30 31 32 33 34 35 36 37 38 39 40 41 42 43 44 45 46 47 48 49 50
000
ASUS43 KDMX 022107
RWRIA

WEATHER ROUNDUP FOR IOWA
NATIONAL WEATHER SERVICE DES MOINES IA
400 PM CDT TUE SEP 02 2014

NOTE: "FAIR" INDICATES FEW OR NO CLOUDS BELOW 12,000 FEET WITH NO
SIGNIFICANT WEATHER AND/OR OBSTRUCTIONS TO VISIBILITY.

* - THESE STATIONS ARE NOT NWS STATIONS...THUS NOT UNDER NWS
QUALITY CONTROL.  THEY ALSO DO NOT REPORT WEATHER SUCH
AS PRECIPITATION OR FOG.

IAZ001>003-012>014-020>022-031>034-043>046-022200-
   NORTHWEST IOWA

CITY           SKY/WX    TMP DP  RH WIND       PRES   REMARKS
CARROLL *      SUNNY     77  61  57 SW6G15    29.97F
CHEROKEE *     SUNNY     77  63  61 SW7       29.96S
DENISON *      SUNNY     75  59  57 VRB7G14   29.96F
LE MARS *      SUNNY     79  59  50 SW10G16   29.96S HX  80
ORANGE CITY *  SUNNY     77  54  44 SW6       29.96S
SHELDON *      MOSUNNY   75  61  60 SW10      29.94F
SIOUX CITY     SUNNY     78  58  49 SW10      29.96F
SPENCER        SUNNY     76  58  53 SW12      29.95F
STORM LAKE *   SUNNY     75  64  69 SW9G16    29.97F
$$

IAZ055>058-069>071-079>083-090>094-022200-
   SOUTHWEST IOWA

CITY           SKY/WX    TMP DP  RH WIND       PRES   REMARKS
ATLANTIC *     SUNNY     77  59  53 W8        29.97F
AUDUBON *      SUNNY     79  64  61 W7        29.99F HX  81
CLARINDA *     SUNNY     81  63  54 VRB6      29.99F HX  82
COUNCIL BLFS * SUNNY     79  59  50 SW8       29.97F HX  80
CRESTON *      SUNNY     77  57  50 W14       29.99S
HARLAN  *      SUNNY     77  61  57 W8        30.01F
LAMONI         SUNNY     80  60  50 NW8       29.98F HX  81
RED OAK *      SUNNY     79  57  47 W6        29.98F HX  80
SHENANDOAH *   SUNNY     81  61  50 W7        29.98F HX  81
$$

IAZ047>049-059>061-072>074-084-022200-
   CENTRAL IOWA

CITY           SKY/WX    TMP DP  RH WIND       PRES   REMARKS
AMES           SUNNY     78  58  49 W9        29.96F
ANKENY *       SUNNY     79  59  50 SW8       29.96S HX  80
CHARITON *     SUNNY     79  59  50 NW9       29.97F HX  80
DES MOINES     MOSUNNY   80  58  46 W9        29.96S HX  80
GRINNELL*      SUNNY     77  57  50 SW8       29.97S
KNOXVILLE *    SUNNY     77  59  53 NW7       29.95F
MARSHALLTOWN   SUNNY     78  57  48 NW8       29.95F
PELLA *        SUNNY     81  61  50 W5        29.98F HX  81
PERRY *          N/A     77  57  50 W7        29.97F
$$

IAZ004>006-015-016-023>025-035-036-022200-
   NORTH CENTRAL IOWA

CITY           SKY/WX    TMP DP  RH WIND       PRES   REMARKS
ALGONA *       SUNNY     77  59  53 W12       29.95F
CLARION *      SUNNY     77  57  50 W12       29.96F
ESTHERVILLE    SUNNY     75  57  53 SW12      29.95S
FORT DODGE *   SUNNY     77  59  53 W8        29.97S
MASON CITY     MOSUNNY   78  58  49 W13       29.96S
FOREST CITY *  SUNNY     75  57  53 W9        29.95F
IOWA FALLS *     N/A     77  55  47 SW8       29.97F
$$

IAZ007>011-017>019-026>030-037>042-050>054-066-022200-
   NORTHEAST IOWA

CITY           SKY/WX    TMP DP  RH WIND       PRES   REMARKS
CEDAR RAPIDS   MOSUNNY   79  61  53 W12       29.95R HX  80
CHARLES CITY * SUNNY     75  57  53 W12       29.95F
CLINTON *      SUNNY     79  63  57 W10       29.95S HX  80
DECORAH *      MOSUNNY   75  59  57 VRB6G14   29.93F
DUBUQUE        SUNNY     77  60  55 NW12      29.94F
MONTICELLO *   SUNNY     77  61  57 NW10G16   29.94S
OELWEIN *      SUNNY     77  57  50 W8G15     29.95F
WATERLOO       SUNNY     78  55  44 W12       29.93F
$$

IAZ064-065-067-068-078-022200-
   EAST CENTRAL IOWA

CITY           SKY/WX    TMP DP  RH WIND       PRES   REMARKS
DAVENPORT      MOSUNNY   78  60  53 W13G20    29.94S
IOWA CITY      MOSUNNY   77  60  55 W10       29.95S
MT. PLEASANT * MOSUNNY   82  57  42 W10       29.94F HX  82
MUSCATINE *    MOSUNNY   81  61  50 W13       29.94S HX  81
QUAD CITIES    MOSUNNY   79  61  53 W12       29.93S HX  80
$$

IAZ062-063-075>077-085>089-095>099-022200-
   SOUTHEAST IOWA

CITY           SKY/WX    TMP DP  RH WIND       PRES   REMARKS
BURLINGTON     MOSUNNY   81  63  54 W9        29.94F HX  82
FAIRFIELD *    SUNNY     79  61  53 W13       29.96F HX  80
FORT MADISON * MOSUNNY   82  63  51 W12       29.95F HX  83
KEOKUK *       MOSUNNY   82  66  57 W9G16     29.93F HX  85
OSKALOOSA *      N/A     79  61  53 W10G17    29.96F HX  80
CENTERVILLE *  SUNNY     81  63  54 W12       29.98F HX  82
OTTUMWA        SUNNY     79  61  53 W9        29.95F HX  80
WASHINGTON *   SUNNY     81  63  54 W10G18    29.95F HX  82
$$

ABBREVIATIONS USED IN REMARKS
   TC - TEMPERATURES IN CELSIUS
  WCI - WIND CHILL INDEX
   HX - HEAT INDEX
  VSB - VISIBILITY
$$



USA.gov is the U.S. government's official web portal to all federal, state and local government web resources and services.